This is the latest recevied weather packets stored in our database for station/object WX5KDM. If no packets are shown the sender has not sent any weather packets the latest 10 day(s).
| Time | Temp. | Humidity | Pressure | Rain* | Wind** | Luminosity | Snow |
|---|---|---|---|---|---|---|---|
| 1788095497 | 25.56° C | 88% | 1020.4 hPa | 0 mm | - | - | - |
| 1788095192 | 25.56° C | 88% | 1020.6 hPa | 0 mm | - | - | - |
| 1788094892 | 25.56° C | 88% | 1020.4 hPa | 0 mm | - | - | - |
| 1788094591 | 25° C | 89% | 1020.7 hPa | 0 mm | - | - | - |
| 1788094286 | 25° C | 89% | 1020.6 hPa | 0 mm | - | - | - |
| 1788093984 | 25° C | 89% | 1020.3 hPa | 0 mm | - | - | - |
| 1788093680 | 24.44° C | 90% | 1020.2 hPa | 0 mm | - | - | - |
| 1788093377 | 23.89° C | 90% | 1020.2 hPa | 0 mm | - | - | - |
| 1788093072 | 23.89° C | 91% | 1020.3 hPa | 0 mm | - | - | - |
| 1788092769 | 22.78° C | 92% | 1020 hPa | 0 mm | - | - | - |
| 1788092464 | 22.78° C | 94% | 1020.1 hPa | 0 mm | - | - | - |
| 1788092160 | 22.22° C | 94% | 1020.1 hPa | 0 mm | - | - | - |
| 1788091859 | 21.67° C | 95% | 1020.1 hPa | 0 mm | - | - | - |
| 1788091555 | 21.67° C | 97% | 1020.1 hPa | 0 mm | - | - | - |
| 1788091251 | 21.11° C | 97% | 1020 hPa | 0 mm | - | - | - |
| 1788090947 | 21.11° C | 97% | 1020.1 hPa | 0 mm | - | - | - |
| 1788090656 | 21.11° C | 97% | 1019.8 hPa | 0 mm | - | - | - |
| 1788090339 | 21.11° C | 97% | 1019.8 hPa | 0 mm | - | - | - |
| 1788090038 | 21.11° C | 98% | 1019.8 hPa | 0 mm | - | - | - |
| 1788089734 | 20.56° C | 98% | 1019.5 hPa | 0 mm | - | - | - |
| 1788089429 | 20.56° C | 98% | 1019.6 hPa | 0 mm | - | - | - |
| 1788089125 | 20.56° C | 97% | 1019.4 hPa | 0 mm | - | - | - |
| 1788088821 | 20.56° C | 97% | 1019.1 hPa | 0 mm | - | - | - |
| 1788088516 | 20.56° C | 97% | 1019.2 hPa | 0 mm | - | - | - |
| 1788088212 | 20.56° C | 97% | 1019.2 hPa | 0 mm | - | - | - |
* Rain latest hour (hover to see other rain measurements)
** Current wind speed in m/s (hover to see current wind gust speed)